Tracking 25734 objects as of 26-May-2022
HD Live streaming from Space Station
objects crossing your sky now

SL-12 DEB

Track SL-12 DEB now!
10-day predictions


NORAD ID: 42973
Int'l Code: 2010-041N
Perigee: 700.1 km
Apogee: 18,295.7 km
Inclination: 63.1 °
Period: 331.6 minutes
Semi major axis: 15868 km
RCS: Unknown
Launch date: September 2, 2010
Source: Commonwealth of Independent States (former USSR) (CIS)
Launch site: TYURATAM MISSILE AND SPACE COMPLEX (TTMTR)

Note: This is SATELLITE DEBRIS
aabbcc
Your satellite tracking list
Your tracking list is empty




NASA's NSSDC Master Catalog

Two Line Element Set (TLE):
1 42973U 10041N   22133.42580311  .00007144  00000-0  60255-1 0  9991
2 42973  63.0765 296.4460 5544076  35.7200 351.0833  4.34293870 72689
Source of the keplerian elements: AFSPC